Weather History for KNPA - April, 2013

Change the Weather History Date:

Saturday, April 20, 2013

  Actual Average (KPNS) Record (KPNS)
Temperature  
Mean Temperature 56 °F 68 °F  
Max Temperature 69 °F 77 °F 86 °F (1987)
Min Temperature 44 °F 59 °F 43 °F (1953)
Degree Days  
Heating Degree Days 9 1  
Month to date heating degree days 44  
Since 1 July heating degree days 1528  
Cooling Degree Days 0 4  
Month to date cooling degree days 53  
Year to date cooling degree days 100  
Growing Degree Days 6 (Base 50)    
Moisture  
Dew Point 40 °F    
Average Humidity 59    
Maximum Humidity 93    
Minimum Humidity 32    
Precipitation  
Precipitation 0.00 in 0.15 in 3.72 in (1912)
Month to date precipitation 3.02  
Year to date precipitation 18.52  
Sea Level Pressure  
Sea Level Pressure 30.18 in    
Wind  
Wind Speed 8 mph (NNE)    
Max Wind Speed 17 mph    
Max Gust Speed 25 mph    
Visibility 10 miles    
Events      
T = Trace of Precipitation, MM = Missing Value Source: NWS Daily Summary

Daily Weather History Graph

Daily Weather History Graph

Search for Another Location

Airport or City:

Trip Planner

Search our weather history database for the weather conditions in past years. The results will help you decide how hot, cold, wet, or windy it might be!

Date:

Astronomy

Apr. 20, 2013 Rise Set
Actual Time 6:16 AM CDT 7:20 PM CDT
Civil Twilight 5:51 AM CDT 7:45 PM CDT
Nautical Twilight 5:22 AM CDT 8:14 PM CDT
Astronomical Twilight 4:51 AM CDT 8:45 PM CDT
Moon 2:24 PM CDT (4/20) 2:42 AM CDT (4/20)
Length of Visible Light 13h 53m
Length of Day
13h 03m
Waxing Gibbous, 71% of the Moon is Illuminated
Apr 20
Waxing Gibbous
Apr 25
Full
May 2
Last Quarter
May 9
New
May 17
First Quarter

Hourly Weather History & Observations

Time (CDT) Temp. Windchill Dew Point Humidity Pressure Visibility Wind Dir Wind Speed Gust Speed Precip Events Conditions
12:56 AM 48.9 °F - 46.9 °F 93% 30.17 in 10.0 mi NW 3.5 mph - N/A   Clear
1:56 AM 48.0 °F - 46.0 °F 93% 30.17 in 10.0 mi NW 4.6 mph - N/A   Clear
2:56 AM 48.0 °F - 45.0 °F 89% 30.16 in 10.0 mi NNW 6.9 mph - N/A   Clear
3:56 AM 46.9 °F - 42.1 °F 83% 30.16 in 10.0 mi North 9.2 mph - N/A   Clear
4:56 AM 45.0 °F 40.6 °F 41.0 °F 86% 30.18 in 10.0 mi North 8.1 mph - N/A   Clear
5:56 AM 44.1 °F 40.1 °F 41.0 °F 89% 30.19 in 10.0 mi North 6.9 mph - N/A   Clear
6:56 AM 45.0 °F 41.8 °F 41.0 °F 86% 30.22 in 10.0 mi North 5.8 mph - N/A   Clear
7:56 AM 48.0 °F - 41.0 °F 77% 30.23 in 10.0 mi North 8.1 mph - N/A   Clear
8:56 AM 53.1 °F - 37.0 °F 55% 30.24 in 10.0 mi NNE 16.1 mph 25.3 mph N/A   Scattered Clouds
9:56 AM 57.0 °F - 37.0 °F 47% 30.25 in 10.0 mi NE 17.3 mph - N/A   Partly Cloudy
10:56 AM 60.1 °F - 37.0 °F 42% 30.25 in 10.0 mi NNE 15.0 mph 20.7 mph N/A   Partly Cloudy
11:56 AM 63.0 °F - 34.0 °F 34% 30.22 in 10.0 mi NNE 16.1 mph 23.0 mph N/A   Partly Cloudy
12:56 PM 64.0 °F - 34.0 °F 33% 30.20 in 10.0 mi NE 13.8 mph 19.6 mph N/A   Clear
1:56 PM 66.0 °F - 37.0 °F 34% 30.18 in 10.0 mi NNE 11.5 mph 17.3 mph N/A   Clear
2:56 PM 66.9 °F - 37.0 °F 33% 30.15 in 10.0 mi Variable 4.6 mph 16.1 mph N/A   Clear
3:56 PM 68.0 °F - 37.0 °F 32% 30.14 in 10.0 mi North 9.2 mph - N/A   Clear
4:56 PM 68.0 °F - 39.0 °F 35% 30.12 in 10.0 mi NNE 10.4 mph - N/A   Clear
5:29 PM 68.0 °F - 39.2 °F 35% 30.12 in 10.0 mi NNE 10.4 mph - N/A   Clear
5:56 PM 66.9 °F - 39.0 °F 36% 30.13 in 10.0 mi North 6.9 mph - N/A   Clear
6:56 PM 64.0 °F - 39.0 °F 40% 30.14 in 10.0 mi NNE 10.4 mph - N/A   Clear
7:56 PM 59.0 °F - 42.1 °F 53% 30.16 in 10.0 mi NNE 5.8 mph - N/A   Clear
8:56 PM 54.0 °F - 44.1 °F 69% 30.18 in 10.0 mi NE 3.5 mph - N/A   Clear
9:56 PM 55.9 °F - 44.1 °F 64% 30.20 in 10.0 mi NNE 5.8 mph - N/A   Clear
10:56 PM 55.0 °F - 45.0 °F 69% 30.20 in 10.0 mi NNE 5.8 mph - N/A   Clear
11:56 PM 53.1 °F - 45.0 °F 74% 30.20 in 10.0 mi North 4.6 mph - N/A   Clear